Weather History for Moorhead, MN

Change the Weather History Date:

Sunday, June 8, 2014

  Actual Average (KFAR) Record (KFAR)
Temperature  
Mean Temperature 60 °F 64 °F  
Max Temperature 73 °F 76 °F 92 °F (1972)
Min Temperature 48 °F 53 °F 30 °F (1885)
Degree Days  
Heating Degree Days 4 3  
Month to date heating degree days 31  
Since 1 June heating degree days 31  
Since 1 July heating degree days 8760  
Cooling Degree Days 0 2  
Month to date cooling degree days 16  
Year to date cooling degree days 47  
Since 1 June cooling degree days 16  
Growing Degree Days 10 (Base 50)    
Moisture  
Dew Point 37 °F    
Average Humidity 48    
Maximum Humidity 100    
Minimum Humidity 12    
Precipitation  
Precipitation 0.00 in 0.13 in 3.48 in (1914)
Month to date precipitation 0.98  
Year to date precipitation 7.79  
Snow  
Snow 0.00 in 0.00 in 0.00 in ()
Month to date snowfall 0.0  
Since 1 June snowfall 0.0  
Since 1 July snowfall 50.4  
Snow Depth -    
Sea Level Pressure  
Sea Level Pressure 30.06 in    
Wind  
Wind Speed 4 mph (SSW)    
Max Wind Speed 16 mph    
Max Gust Speed 20 mph    
Visibility 10 miles    
Events      
T = Trace of Precipitation, MM = Missing Value Source: NWS Daily Summary

Daily Weather History Graph

Daily Weather History Graph

Search for Another Location

Airport:

Trip Planner

Search our weather history database for the weather conditions in past years. The results will help you decide how hot, cold, wet, or windy it might be!

Date:

Astronomy

Jun. 08, 2014 Rise Set
Actual Time 5:32 AM CDT 9:18 PM CDT
Civil Twilight 4:53 AM CDT 9:58 PM CDT
Nautical Twilight 4:00 AM CDT 10:51 PM CDT
Astronomical Twilight 2:45 AM CDT 12:06 AM CDT
Moon 4:22 PM CDT (6/8) 2:44 AM CDT (6/8)
Length of Visible Light 17h 04m
Length of Day
15h 46m
Waxing Gibbous, 77% of the Moon is Illuminated
Jun 8
Waxing Gibbous
Jun 12
Full
Jun 19
Last Quarter
Jun 27
New
Jul 5
First Quarter

Hourly Weather History & Observations

Time (CDT) Temp. Dew Point Humidity Pressure Visibility Wind Dir Wind Speed Gust Speed Precip Events Conditions
12:14 AM 57.2 °F 39.2 °F 51% 30.09 in 10.0 mi Calm Calm - N/A   Clear
12:35 AM 57.2 °F 42.8 °F 59% 30.09 in 10.0 mi Calm Calm - N/A   Clear
12:54 AM 55.4 °F 44.6 °F 67% 30.09 in 10.0 mi Calm Calm - N/A   Clear
1:15 AM 55.4 °F 42.8 °F 63% 30.09 in 10.0 mi Calm Calm - N/A   Clear
1:35 AM 55.4 °F 41.0 °F 58% 30.09 in 10.0 mi Calm Calm - N/A   Clear
1:54 AM 53.6 °F 42.8 °F 67% 30.09 in 10.0 mi Calm Calm - N/A   Clear
2:15 AM 53.6 °F 46.4 °F 77% 30.09 in 10.0 mi Calm Calm - N/A   Clear
2:35 AM 53.6 °F 44.6 °F 72% 30.09 in 10.0 mi Calm Calm - N/A   Clear
2:54 AM 53.6 °F 44.6 °F 72% 30.09 in 10.0 mi Calm Calm - N/A   Clear
3:15 AM 51.8 °F 44.6 °F 76% 30.10 in 10.0 mi Calm Calm - N/A   Clear
3:34 AM 51.8 °F 44.6 °F 76% 30.10 in 10.0 mi Calm Calm - N/A   Clear
3:55 AM 51.8 °F 46.4 °F 82% 30.10 in 10.0 mi Calm Calm - N/A   Clear
4:15 AM 48.2 °F 46.4 °F 93% 30.10 in 10.0 mi Calm Calm - N/A   Clear
4:34 AM 51.8 °F 48.2 °F 88% 30.09 in 10.0 mi SSE 3.5 mph - N/A   Clear
4:55 AM 48.2 °F 48.2 °F 100% 30.10 in 10.0 mi Calm Calm - N/A   Clear
5:15 AM 50.0 °F 48.2 °F 94% 30.10 in 10.0 mi SSE 4.6 mph - N/A   Clear
5:34 AM 50.0 °F 48.2 °F 94% 30.10 in 10.0 mi SE 4.6 mph - N/A   Clear
5:55 AM 50.0 °F 46.4 °F 87% 30.10 in 10.0 mi SE 3.5 mph - N/A   Clear
6:15 AM 50.0 °F 48.2 °F 94% 30.10 in 10.0 mi South 3.5 mph - N/A   Clear
6:34 AM 51.8 °F 48.2 °F 88% 30.10 in 10.0 mi Calm Calm - N/A   Clear
6:55 AM 51.8 °F 48.2 °F 88% 30.10 in 10.0 mi Calm Calm - N/A   Clear
7:15 AM 53.6 °F 48.2 °F 82% 30.10 in 10.0 mi South 3.5 mph - N/A   Clear
7:34 AM 55.4 °F 48.2 °F 77% 30.10 in 10.0 mi SE 3.5 mph - N/A   Clear
7:55 AM 57.2 °F 48.2 °F 72% 30.10 in 10.0 mi SE 5.8 mph - N/A   Clear
8:14 AM 59.0 °F 46.4 °F 63% 30.09 in 10.0 mi SSE 6.9 mph - N/A   Clear
8:35 AM 60.8 °F 46.4 °F 59% 30.10 in 10.0 mi SSE 6.9 mph - N/A   Clear
8:55 AM 62.6 °F 46.4 °F 55% 30.10 in 10.0 mi SSE 4.6 mph - N/A   Clear
9:14 AM 64.4 °F 46.4 °F 52% 30.10 in 10.0 mi SSE 4.6 mph - N/A   Clear
9:35 AM 64.4 °F 44.6 °F 49% 30.10 in 10.0 mi SE 6.9 mph - N/A   Clear
9:55 AM 66.2 °F 42.8 °F 43% 30.10 in 10.0 mi South 5.8 mph - N/A   Clear
1:14 PM 71.6 °F 26.6 °F 19% 30.07 in 10.0 mi Calm Calm - N/A   Clear
1:35 PM 71.6 °F 24.8 °F 17% 30.07 in 10.0 mi SW 8.1 mph - N/A   Scattered Clouds
1:55 PM 73.4 °F 24.8 °F 16% 30.06 in 10.0 mi SSW 11.5 mph - N/A   Scattered Clouds
2:14 PM 71.6 °F 23.0 °F 16% 30.06 in 10.0 mi WSW 9.2 mph - N/A   Scattered Clouds
2:35 PM 71.6 °F 21.2 °F 15% 30.06 in 10.0 mi WSW 9.2 mph - N/A   Scattered Clouds
2:54 PM 73.4 °F 23.0 °F 15% 30.05 in 10.0 mi WSW 10.4 mph - N/A   Scattered Clouds
3:15 PM 73.4 °F 17.6 °F 12% 30.04 in 10.0 mi WSW 8.1 mph 19.6 mph N/A   Clear
3:34 PM 71.6 °F 23.0 °F 16% 30.04 in 10.0 mi SSW 12.7 mph - N/A   Scattered Clouds
3:54 PM 71.6 °F 26.6 °F 19% 30.04 in 10.0 mi SW 10.4 mph - N/A   Mostly Cloudy
4:15 PM 73.4 °F 24.8 °F 16% 30.03 in 10.0 mi SW 11.5 mph 17.3 mph N/A   Mostly Cloudy
4:34 PM 73.4 °F 24.8 °F 16% 30.03 in 10.0 mi SW 9.2 mph - N/A   Scattered Clouds
4:54 PM 73.4 °F 26.6 °F 18% 30.03 in 10.0 mi WSW 9.2 mph 17.3 mph N/A   Scattered Clouds
5:15 PM 73.4 °F 21.2 °F 14% 30.02 in 10.0 mi WSW 10.4 mph - N/A   Scattered Clouds
5:34 PM 71.6 °F 30.2 °F 22% 30.02 in 10.0 mi SSW 13.8 mph 18.4 mph N/A   Clear
5:54 PM 71.6 °F 26.6 °F 19% 30.02 in 10.0 mi SW 16.1 mph - N/A   Scattered Clouds
6:15 PM 71.6 °F 30.2 °F 22% 30.02 in 10.0 mi SW 12.7 mph - N/A   Scattered Clouds
6:34 PM 71.6 °F 28.4 °F 20% 30.02 in 10.0 mi SW 13.8 mph 19.6 mph N/A   Mostly Cloudy
6:55 PM 71.6 °F 26.6 °F 19% 30.01 in 10.0 mi WSW 13.8 mph - N/A   Scattered Clouds
7:15 PM 71.6 °F 28.4 °F 20% 30.02 in 10.0 mi WSW 9.2 mph - N/A   Clear
7:34 PM 71.6 °F 26.6 °F 19% 30.01 in 10.0 mi SW 9.2 mph - N/A   Clear
7:55 PM 71.6 °F 28.4 °F 20% 30.01 in 10.0 mi WSW 4.6 mph - N/A   Clear
8:14 PM 69.8 °F 28.4 °F 21% 30.01 in 10.0 mi WSW 5.8 mph - N/A   Clear
8:35 PM 69.8 °F 30.2 °F 23% 30.01 in 10.0 mi SW 5.8 mph - N/A   Clear
8:55 PM 66.2 °F 35.6 °F 32% 30.01 in 10.0 mi SSW 4.6 mph - N/A   Clear
9:35 PM 64.4 °F 37.4 °F 37% 30.02 in 10.0 mi SSW 6.9 mph - N/A   Clear
9:55 PM 64.4 °F 37.4 °F 37% 30.02 in 10.0 mi SSW 6.9 mph - N/A   Clear
10:14 PM 62.6 °F 39.2 °F 42% 30.02 in 10.0 mi SSW 6.9 mph - N/A   Clear
10:35 PM 64.4 °F 35.6 °F 34% 30.02 in 10.0 mi South 4.6 mph - N/A   Clear
10:55 PM 64.4 °F 35.6 °F 34% 30.02 in 10.0 mi South 5.8 mph - N/A   Clear
11:14 PM 62.6 °F 39.2 °F 42% 30.02 in 10.0 mi SSW 8.1 mph - N/A   Clear
11:35 PM 59.0 °F 42.8 °F 55% 30.02 in 10.0 mi SW 6.9 mph - N/A   Clear
11:55 PM 59.0 °F 42.8 °F 55% 30.02 in 10.0 mi SW 5.8 mph - N/A   Clear